2012 Shingle Creek,,,,,
4-Component Radiation Hourly Summary*,,,,,
,,,,,
Dataset Reference Format:,,,,,
 ,[Year of data collection] Stream data from Dry Creek Experimental Watershed. Watershed Process Research Group Boise State University,,,,
 ,URL: earth.boisestate.edu/drycreek. Multi-paged. [month and day of data download].,,,,
,,,,,
Dataset Header Description,,,,,
,Column.Variable-units| Description,,,,
 ,1. DateTime| Time stamp of variable collection time [MM/DD/YY  hr:mm],,,,
 ,2. SWin-W/m2|  Corrected Incoming shortwave [W/m2],,,,
 ,3. SWout-W/m2|   Corrected Outgoing shortwave  [W/m2],,,,
 ,4. LWin-W/m2|   Corrected Incoming longwave (Far Infra-Red)  [W/m2],,,,
 ,5. LWout-W/m2|   Corrected Outgoing longwave (Far Infra-Red)  [W/m2],,,,
 ,6. RadTemp-C| Radiometer Temperature [C],,,,
,,,,,
 ,Note: -6999 denotes missing data,,,,
,"*Hourly average of measured values, prior hour, on the hour. ",,,,
,,,,,
DateTime,SWin-W/m2,SWout-W/m2,LWin-W/m2,LWout-W/m2,RadTemp-C
1/1/2012 0:00,0.00,0.18,241.50,286.80,-3.5
1/1/2012 1:00,0.00,0.08,261.60,290.60,-3.7
1/1/2012 2:00,0.00,0.26,265.60,291.20,-3.5
1/1/2012 3:00,0.00,0.14,263.80,294.10,-2.7
1/1/2012 4:00,0.00,0.13,269.30,294.20,-2.7
1/1/2012 5:00,0.00,0.00,289.70,299.00,-2.1
1/1/2012 6:00,0.00,0.02,295.30,299.10,-2.2
1/1/2012 7:00,0.00,0.00,300.10,303.50,-1.0
1/1/2012 8:00,0.00,0.00,294.50,302.20,-1.2
1/1/2012 9:00,0.00,2.99,296.70,302.00,-1.3
1/1/2012 10:00,60.70,27.02,287.50,303.90,-0.8
1/1/2012 11:00,208.70,90.50,244.50,306.60,0.8
1/1/2012 12:00,358.80,158.10,247.60,317.20,3.0
1/1/2012 13:00,382.10,172.70,249.00,321.00,3.9
1/1/2012 14:00,383.10,168.90,248.90,321.30,4.1
1/1/2012 15:00,379.90,130.30,248.50,321.50,4.8
1/1/2012 16:00,273.50,83.40,245.90,317.20,3.9
1/1/2012 17:00,100.00,24.84,242.90,311.40,2.9
1/1/2012 18:00,0.00,1.32,242.30,307.50,1.9
1/1/2012 19:00,0.00,0.11,243.70,308.60,2.1
1/1/2012 20:00,0.00,0.05,248.60,309.80,2.4
1/1/2012 21:00,0.00,0.10,252.20,315.60,4.0
1/1/2012 22:00,0.00,0.00,251.60,318.10,4.5
1/1/2012 23:00,0.00,0.00,252.00,319.00,4.7
1/2/2012 0:00,0.00,0.00,252.70,322.10,5.5
1/2/2012 1:00,0.00,0.00,250.30,323.40,5.8
1/2/2012 2:00,0.00,0.00,249.50,323.70,6.0
1/2/2012 3:00,0.00,0.00,249.40,322.60,5.6
1/2/2012 4:00,0.00,0.04,253.10,324.00,5.8
1/2/2012 5:00,0.00,0.00,250.80,324.90,6.1
1/2/2012 6:00,0.00,0.00,246.70,324.30,6.3
1/2/2012 7:00,0.00,0.00,244.10,323.20,6.3
1/2/2012 8:00,0.00,0.00,244.30,323.20,6.6
1/2/2012 9:00,10.11,6.10,246.10,323.20,6.7
1/2/2012 10:00,63.85,18.10,247.30,324.00,6.6
1/2/2012 11:00,202.70,79.55,255.40,329.90,7.9
1/2/2012 12:00,250.60,94.10,267.40,332.80,8.1
1/2/2012 13:00,265.50,93.30,271.90,333.10,8.1
1/2/2012 14:00,170.30,57.22,287.50,331.40,7.6
1/2/2012 15:00,101.10,33.71,299.30,331.70,7.9
1/2/2012 16:00,63.85,19.86,304.90,332.80,8.5
1/2/2012 17:00,35.12,11.07,297.60,332.30,8.4
1/2/2012 18:00,0.00,0.67,289.30,332.80,8.9
1/2/2012 19:00,0.00,0.00,287.60,334.50,9.7
1/2/2012 20:00,0.00,0.00,288.70,335.20,10.0
1/2/2012 21:00,0.00,0.00,278.50,334.10,9.9
1/2/2012 22:00,0.00,0.00,260.20,332.10,9.6
1/2/2012 23:00,0.00,0.00,252.60,328.20,8.8
1/3/2012 0:00,0.00,0.12,247.70,321.50,7.1
1/3/2012 1:00,0.00,0.48,256.30,318.20,5.8
1/3/2012 2:00,0.00,0.06,269.40,318.10,5.4
1/3/2012 3:00,0.00,0.28,286.20,318.40,4.8
1/3/2012 4:00,0.00,0.49,254.30,313.60,4.4
1/3/2012 5:00,0.00,0.16,255.80,310.40,3.2
1/3/2012 6:00,0.00,0.31,281.30,313.60,2.8
1/3/2012 7:00,0.00,0.52,285.60,318.40,3.8
1/3/2012 8:00,0.00,0.48,245.00,311.20,3.5
1/3/2012 9:00,0.00,4.04,241.40,309.30,3.0
1/3/2012 10:00,32.47,10.48,242.20,311.90,3.7
1/3/2012 11:00,173.50,54.74,249.20,322.00,5.5
1/3/2012 12:00,366.60,111.00,253.40,339.60,10.6
1/3/2012 13:00,382.90,115.80,255.80,342.50,10.7
1/3/2012 14:00,373.80,101.30,257.10,342.90,10.6
1/3/2012 15:00,370.70,85.20,257.50,342.00,10.3
1/3/2012 16:00,248.90,49.58,253.10,336.50,9.3
1/3/2012 17:00,102.20,18.46,247.20,327.40,7.0
1/3/2012 18:00,0.00,1.22,244.20,319.00,4.9
1/3/2012 19:00,0.00,1.21,243.10,314.80,3.9
1/3/2012 20:00,0.00,0.29,244.30,320.10,5.0
1/3/2012 21:00,0.00,0.37,245.90,321.20,5.4
1/3/2012 22:00,0.00,0.34,244.30,321.40,5.4
1/3/2012 23:00,0.00,0.27,245.10,320.50,5.3
1/4/2012 0:00,0.00,0.40,246.80,320.70,5.5
1/4/2012 1:00,0.00,0.14,248.00,320.20,5.5
1/4/2012 2:00,0.00,0.27,247.50,321.40,5.3
1/4/2012 3:00,0.00,0.08,250.10,323.20,6.1
1/4/2012 4:00,0.00,0.03,251.60,323.80,6.3
1/4/2012 5:00,0.00,0.00,252.00,322.30,5.5
1/4/2012 6:00,0.00,0.15,254.50,323.40,5.8
1/4/2012 7:00,0.00,0.00,257.20,323.90,6.0
1/4/2012 8:00,0.00,0.03,255.50,322.50,5.4
1/4/2012 9:00,8.51,4.23,256.50,324.30,6.1
1/4/2012 10:00,63.32,8.76,253.80,326.60,6.8
1/4/2012 11:00,194.20,48.08,255.40,332.40,7.8
1/4/2012 12:00,374.00,92.70,262.70,344.10,10.0
1/4/2012 13:00,382.90,95.00,266.00,347.50,10.5
1/4/2012 14:00,382.80,86.10,267.00,350.90,11.4
1/4/2012 15:00,377.00,70.37,267.00,349.20,11.1
1/4/2012 16:00,276.50,46.76,265.50,344.90,11.0
1/4/2012 17:00,122.90,17.20,261.70,338.90,10.6
1/4/2012 18:00,0.00,0.89,258.40,331.00,8.4
1/4/2012 19:00,0.00,0.16,258.90,331.20,8.6
1/4/2012 20:00,0.00,0.22,257.20,333.40,9.3
1/4/2012 21:00,0.00,0.05,255.10,332.90,8.9
1/4/2012 22:00,0.00,0.00,272.70,335.50,9.4
1/4/2012 23:00,0.00,0.00,264.40,334.60,9.2
1/5/2012 0:00,0.00,0.08,258.20,336.10,9.8
1/5/2012 1:00,0.00,0.00,259.70,336.80,10.2
1/5/2012 2:00,0.00,0.00,266.70,334.80,9.9
1/5/2012 3:00,0.00,0.00,318.60,336.80,9.8
1/5/2012 4:00,0.00,0.00,335.90,337.50,9.9
1/5/2012 5:00,0.00,0.00,323.00,337.00,9.7
1/5/2012 6:00,0.00,0.00,296.90,333.20,9.1
1/5/2012 7:00,0.00,0.00,303.60,332.00,8.3
1/5/2012 8:00,0.00,0.00,314.30,330.80,7.5
1/5/2012 9:00,0.00,1.65,304.40,329.40,6.9
1/5/2012 10:00,43.63,8.48,303.40,331.20,6.9
1/5/2012 11:00,152.20,26.76,280.40,332.50,6.5
1/5/2012 12:00,203.30,36.07,287.80,337.30,7.1
1/5/2012 13:00,243.70,41.52,267.60,337.40,6.8
1/5/2012 14:00,375.60,69.83,253.20,344.90,7.7
1/5/2012 15:00,377.80,63.89,248.30,343.20,7.6
1/5/2012 16:00,279.30,44.17,242.70,334.80,6.2
1/5/2012 17:00,113.30,16.36,242.90,324.40,4.5
1/5/2012 18:00,0.00,1.60,232.80,314.20,1.6
1/5/2012 19:00,0.00,1.08,226.80,311.60,0.8
1/5/2012 20:00,0.00,1.02,225.40,309.90,0.1
1/5/2012 21:00,0.00,0.93,226.60,308.20,-0.3
1/5/2012 22:00,0.00,1.15,218.20,305.40,-1.0
1/5/2012 23:00,0.00,1.65,216.70,304.30,-1.1
1/6/2012 0:00,0.00,1.40,216.80,301.80,-1.4
1/6/2012 1:00,0.00,1.49,213.00,299.70,-2.1
1/6/2012 2:00,0.00,1.39,214.40,300.10,-2.0
1/6/2012 3:00,0.00,1.45,210.90,298.50,-2.2
1/6/2012 4:00,0.00,1.73,204.50,296.10,-2.8
1/6/2012 5:00,0.00,1.49,202.20,294.30,-3.0
1/6/2012 6:00,0.00,1.95,200.30,292.00,-3.7
1/6/2012 7:00,0.00,2.17,199.40,291.10,-3.8
1/6/2012 8:00,0.00,1.69,197.70,289.10,-3.9
1/6/2012 9:00,0.00,4.48,197.10,287.30,-4.9
1/6/2012 10:00,59.67,9.60,201.40,290.40,-4.4
1/6/2012 11:00,201.90,40.61,213.30,304.60,-1.7
1/6/2012 12:00,332.20,62.91,222.20,318.90,2.1
1/6/2012 13:00,317.80,54.82,238.80,320.50,1.7
1/6/2012 14:00,296.00,50.09,248.30,320.30,1.3
1/6/2012 15:00,166.60,26.16,256.80,313.60,-0.5
1/6/2012 16:00,118.20,19.90,256.60,311.50,-0.8
1/6/2012 17:00,40.47,6.36,265.60,308.90,-1.2
1/6/2012 18:00,0.00,1.01,263.90,305.90,-2.1
1/6/2012 19:00,0.00,0.72,260.70,303.20,-2.7
1/6/2012 20:00,0.00,1.02,269.70,304.00,-2.5
1/6/2012 21:00,0.00,0.31,264.70,302.80,-2.5
1/6/2012 22:00,0.00,0.45,265.60,300.40,-3.4
1/6/2012 23:00,0.00,0.42,266.60,298.50,-4.2
1/7/2012 0:00,0.00,0.65,281.50,300.50,-3.7
1/7/2012 1:00,0.00,0.05,288.00,301.20,-3.6
1/7/2012 2:00,0.00,0.22,275.70,299.30,-4.0
1/7/2012 3:00,0.00,0.38,268.50,297.90,-4.3
1/7/2012 4:00,0.00,0.35,263.20,295.70,-4.9
1/7/2012 5:00,0.00,0.58,274.60,294.80,-5.2
1/7/2012 6:00,0.00,0.51,280.50,294.60,-5.3
1/7/2012 7:00,0.00,0.54,253.90,293.50,-5.3
1/7/2012 8:00,0.00,0.73,248.30,291.00,-5.8
1/7/2012 9:00,0.00,3.02,207.30,285.80,-6.4
1/7/2012 10:00,42.62,6.80,208.70,287.30,-5.7
1/7/2012 11:00,202.40,44.51,212.80,299.10,-3.0
1/7/2012 12:00,376.50,76.56,222.40,319.40,1.9
1/7/2012 13:00,383.20,80.90,225.20,325.00,2.5
1/7/2012 14:00,383.10,80.00,223.40,324.70,1.7
1/7/2012 15:00,379.00,73.02,221.30,318.70,-0.2
1/7/2012 16:00,309.40,51.68,220.60,315.60,0.4
1/7/2012 17:00,125.10,18.56,210.50,306.50,-1.0
1/7/2012 18:00,0.00,2.07,208.20,296.50,-4.0
1/7/2012 19:00,0.00,1.89,219.70,294.40,-4.8
1/7/2012 20:00,0.00,1.36,221.90,295.90,-3.2
1/7/2012 21:00,0.00,1.59,212.70,292.80,-3.5
1/7/2012 22:00,0.00,1.42,224.70,292.60,-3.6
1/7/2012 23:00,0.00,1.00,242.30,295.00,-3.4
1/8/2012 0:00,0.00,0.89,249.80,296.70,-3.1
1/8/2012 1:00,0.00,0.71,247.90,297.30,-2.7
1/8/2012 2:00,0.00,0.89,246.80,297.50,-2.6
1/8/2012 3:00,0.00,0.27,275.50,301.60,-2.0
1/8/2012 4:00,0.00,0.00,275.00,301.00,-2.3
1/8/2012 5:00,0.00,0.61,247.60,296.90,-3.1
1/8/2012 6:00,0.00,1.01,244.50,295.50,-3.2
1/8/2012 7:00,0.00,1.18,238.40,294.70,-3.1
1/8/2012 8:00,0.00,0.84,245.40,294.70,-3.1
1/8/2012 9:00,7.99,3.53,253.20,297.70,-2.5
1/8/2012 10:00,84.70,13.72,260.20,303.70,-1.7
1/8/2012 11:00,268.90,52.93,265.60,319.40,1.8
1/8/2012 12:00,340.10,63.82,269.50,331.10,4.6
1/8/2012 13:00,277.80,45.84,264.10,328.50,4.0
1/8/2012 14:00,307.50,50.89,265.40,330.10,4.3
1/8/2012 15:00,311.80,49.40,263.10,332.60,5.2
1/8/2012 16:00,227.70,36.48,259.50,327.90,4.5
1/8/2012 17:00,68.12,9.95,258.90,317.50,2.4
1/8/2012 18:00,0.00,0.97,253.60,312.20,0.9
1/8/2012 19:00,0.00,1.06,253.30,308.90,-0.4
1/8/2012 20:00,0.00,1.24,258.30,311.30,0.6
1/8/2012 21:00,0.00,0.89,244.30,307.90,0.0
1/8/2012 22:00,0.00,1.38,233.90,305.30,-0.5
1/8/2012 23:00,0.00,1.76,229.80,302.90,-1.1
1/9/2012 0:00,0.00,1.94,228.90,301.90,-1.0
1/9/2012 1:00,0.00,1.76,229.00,301.40,-0.8
1/9/2012 2:00,0.00,1.76,226.30,300.10,-1.0
1/9/2012 3:00,0.00,1.87,223.90,298.30,-1.3
1/9/2012 4:00,0.00,1.57,225.30,300.30,-0.3
1/9/2012 5:00,0.00,0.78,224.90,300.10,-0.3
1/9/2012 6:00,0.00,1.81,225.70,297.40,-1.1
1/9/2012 7:00,0.00,1.23,229.30,298.70,-0.3
1/9/2012 8:00,0.00,1.25,230.60,298.20,-0.4
1/9/2012 9:00,0.00,2.13,228.10,295.40,-1.5
1/9/2012 10:00,37.27,5.14,228.40,296.90,-1.5
1/9/2012 11:00,205.50,39.87,232.70,309.90,1.3
1/9/2012 12:00,376.30,69.63,242.70,331.70,6.4
1/9/2012 13:00,383.10,75.58,245.50,338.30,7.2
1/9/2012 14:00,383.00,77.16,249.00,343.80,7.3
1/9/2012 15:00,383.00,63.95,249.00,342.90,8.4
1/9/2012 16:00,295.80,46.27,245.70,333.80,6.6
1/9/2012 17:00,134.60,17.52,239.10,321.20,4.4
1/9/2012 18:00,2.66,1.29,235.00,309.60,0.7
1/9/2012 19:00,0.00,0.74,239.70,315.20,2.1
1/9/2012 20:00,0.00,0.41,240.90,316.40,2.6
1/9/2012 21:00,0.00,0.46,241.00,316.50,2.8
1/9/2012 22:00,0.00,0.23,241.40,315.00,2.2
1/9/2012 23:00,0.00,0.30,243.00,313.40,1.6
1/10/2012 0:00,0.00,0.50,244.90,313.80,1.9
1/10/2012 1:00,0.00,0.31,245.20,313.70,2.1
1/10/2012 2:00,0.00,0.41,250.60,313.90,2.4
1/10/2012 3:00,0.00,0.36,245.10,314.60,2.5
1/10/2012 4:00,0.00,0.37,252.30,311.40,2.3
1/10/2012 5:00,0.00,0.02,278.40,313.50,2.3
1/10/2012 6:00,0.00,0.00,278.30,314.70,2.2
1/10/2012 7:00,0.00,0.46,280.40,313.70,2.1
1/10/2012 8:00,0.00,0.11,296.30,314.60,2.1
1/10/2012 9:00,0.00,0.97,298.80,314.50,1.6
1/10/2012 10:00,41.53,5.39,298.00,310.80,-0.7
1/10/2012 11:00,85.20,21.01,304.50,309.70,-1.5
1/10/2012 12:00,62.30,19.13,308.90,309.20,-1.3
1/10/2012 13:00,71.35,23.21,305.90,306.20,-2.1
1/10/2012 14:00,85.20,34.92,304.80,306.00,-2.3
1/10/2012 15:00,178.40,65.54,311.30,310.00,-0.8
1/10/2012 16:00,130.50,42.51,306.90,303.80,-1.5
1/10/2012 17:00,102.20,29.21,271.70,298.60,-1.2
1/10/2012 18:00,5.33,3.33,253.70,289.00,-3.0
1/10/2012 19:00,0.00,0.83,247.50,289.00,-3.4
1/10/2012 20:00,0.00,0.96,243.30,288.10,-3.8
1/10/2012 21:00,0.00,1.04,238.50,285.50,-4.0
1/10/2012 22:00,0.00,1.04,233.60,285.70,-4.1
1/10/2012 23:00,0.00,0.92,225.40,281.70,-4.7
1/11/2012 0:00,0.00,0.97,217.50,275.40,-5.3
1/11/2012 1:00,0.00,1.09,212.40,277.40,-5.3
1/11/2012 2:00,0.00,0.84,207.50,272.30,-6.2
1/11/2012 3:00,0.00,1.14,204.80,273.90,-5.8
1/11/2012 4:00,0.00,0.86,197.20,275.00,-5.6
1/11/2012 5:00,0.00,0.68,191.90,273.30,-5.8
1/11/2012 6:00,0.00,1.13,189.70,268.70,-6.6
1/11/2012 7:00,0.00,1.14,187.10,267.40,-6.6
1/11/2012 8:00,0.00,1.22,187.50,265.60,-7.0
1/11/2012 9:00,3.73,5.66,188.20,268.10,-6.9
1/11/2012 10:00,63.94,17.30,192.30,275.50,-5.6
1/11/2012 11:00,221.10,76.85,194.70,288.00,-3.7
1/11/2012 12:00,371.70,134.20,204.90,305.80,-0.1
1/11/2012 13:00,403.00,137.40,208.50,310.10,0.4
1/11/2012 14:00,412.60,118.60,212.40,313.00,0.9
1/11/2012 15:00,313.60,79.98,236.50,310.50,-0.2
1/11/2012 16:00,166.70,37.57,214.30,297.50,-3.0
1/11/2012 17:00,158.70,31.75,217.80,298.70,-1.4
1/11/2012 18:00,0.00,1.30,224.90,286.60,-5.3
1/11/2012 19:00,0.00,1.01,226.80,282.50,-6.8
1/11/2012 20:00,0.00,1.27,219.70,279.50,-7.3
1/11/2012 21:00,0.00,1.25,223.30,278.70,-7.5
1/11/2012 22:00,0.00,1.24,210.90,275.70,-7.7
1/11/2012 23:00,0.00,1.11,207.10,279.10,-6.9
1/12/2012 0:00,0.00,0.81,198.70,278.80,-6.7
1/12/2012 1:00,0.00,1.13,195.50,274.00,-6.9
1/12/2012 2:00,0.00,1.37,194.60,271.70,-7.1
1/12/2012 3:00,0.00,1.45,192.70,269.50,-7.5
1/12/2012 4:00,0.00,1.34,192.80,269.70,-7.7
1/12/2012 5:00,0.00,1.54,192.50,269.20,-7.8
1/12/2012 6:00,0.00,1.59,195.90,268.20,-8.1
1/12/2012 7:00,0.00,1.39,198.30,270.10,-7.2
1/12/2012 8:00,0.00,1.15,193.70,267.50,-7.7
1/12/2012 9:00,0.00,5.21,195.20,267.60,-8.3
1/12/2012 10:00,33.57,8.35,190.90,268.40,-8.4
1/12/2012 11:00,216.90,61.74,195.60,284.10,-5.0
1/12/2012 12:00,374.90,107.70,206.10,306.00,0.2
1/12/2012 13:00,403.00,116.90,210.20,313.90,1.4
1/12/2012 14:00,416.30,110.60,210.90,316.20,1.5
1/12/2012 15:00,383.30,92.10,212.40,316.50,2.3
1/12/2012 16:00,317.30,63.47,210.80,311.90,2.2
1/12/2012 17:00,157.10,25.72,204.60,298.80,-0.3
1/12/2012 18:00,9.58,1.71,198.80,284.20,-4.8
1/12/2012 19:00,0.00,2.86,202.20,283.90,-4.4
1/12/2012 20:00,0.00,0.84,221.10,285.70,-3.7
1/12/2012 21:00,0.00,0.89,252.70,290.30,-3.9
1/12/2012 22:00,0.00,0.00,255.90,292.70,-2.9
1/12/2012 23:00,0.00,0.07,239.40,287.20,-4.3
1/13/2012 0:00,0.00,1.44,228.60,282.70,-5.1
1/13/2012 1:00,0.00,0.55,252.60,287.80,-4.4
1/13/2012 2:00,0.00,1.24,217.50,282.70,-4.3
1/13/2012 3:00,0.00,1.10,212.50,279.10,-4.7
1/13/2012 4:00,0.00,1.63,215.00,279.40,-4.8
1/13/2012 5:00,0.00,1.13,220.90,281.30,-4.0
1/13/2012 6:00,0.00,1.12,220.70,280.70,-4.1
1/13/2012 7:00,0.00,0.85,228.20,283.40,-3.5
1/13/2012 8:00,0.00,0.97,217.70,280.10,-4.3
1/13/2012 9:00,0.00,3.65,214.70,279.10,-4.5
1/13/2012 10:00,36.23,7.53,213.90,281.40,-4.3
1/13/2012 11:00,222.10,59.65,218.10,298.80,-0.8
1/13/2012 12:00,383.30,100.40,227.80,322.50,4.6
1/13/2012 13:00,391.60,102.80,233.00,329.10,5.4
1/13/2012 14:00,365.00,85.80,234.60,329.40,5.7
1/13/2012 15:00,383.10,86.20,240.60,333.90,6.9
1/13/2012 16:00,187.30,35.11,236.50,321.40,4.9
1/13/2012 17:00,114.90,20.84,238.40,316.10,4.4
1/13/2012 18:00,0.53,2.27,245.20,307.30,2.1
1/13/2012 19:00,0.00,0.72,270.80,310.90,2.5
1/13/2012 20:00,0.00,0.14,277.00,311.90,2.8
1/13/2012 21:00,0.00,0.40,269.10,311.10,3.0
1/13/2012 22:00,0.00,0.75,237.70,306.00,2.7
1/13/2012 23:00,0.00,0.45,240.30,305.00,2.5
1/14/2012 0:00,0.00,0.29,239.90,307.00,2.9
1/14/2012 1:00,0.00,0.26,236.10,308.30,3.3
1/14/2012 2:00,0.00,0.22,238.10,309.90,3.6
1/14/2012 3:00,0.00,0.08,237.70,309.40,3.5
1/14/2012 4:00,0.00,0.03,236.30,310.40,3.5
1/14/2012 5:00,0.00,0.00,251.50,308.60,2.4
1/14/2012 6:00,0.00,0.09,246.20,306.90,1.7
1/14/2012 7:00,0.00,0.08,256.00,308.40,2.2
1/14/2012 8:00,0.00,0.09,264.00,309.80,2.5
1/14/2012 9:00,12.78,3.97,258.20,309.50,2.1
1/14/2012 10:00,101.10,23.28,261.20,315.10,2.9
1/14/2012 11:00,177.20,40.73,271.10,322.90,3.9
1/14/2012 12:00,243.20,53.26,276.50,332.50,6.2
1/14/2012 13:00,303.30,62.56,274.40,339.00,7.8
1/14/2012 14:00,230.90,41.31,276.60,337.20,7.5
1/14/2012 15:00,171.90,29.41,281.10,333.60,6.6
1/14/2012 16:00,158.00,27.96,273.70,333.70,7.0
1/14/2012 17:00,29.80,6.16,294.70,328.70,6.4
1/14/2012 18:00,0.00,0.17,311.20,328.20,6.3
1/14/2012 19:00,0.00,0.00,273.90,327.60,6.6
1/14/2012 20:00,0.00,0.11,246.90,324.00,6.2
1/14/2012 21:00,0.00,0.67,252.70,320.20,5.3
1/14/2012 22:00,0.00,0.43,257.60,320.70,5.4
1/14/2012 23:00,0.00,0.34,246.30,319.10,5.0
1/15/2012 0:00,0.00,0.41,233.60,317.90,4.7
1/15/2012 1:00,0.00,0.26,234.30,317.20,4.6
1/15/2012 2:00,0.00,0.22,229.20,312.90,3.7
1/15/2012 3:00,0.00,0.29,225.10,306.70,2.3
1/15/2012 4:00,0.00,0.64,219.60,296.90,0.0
1/15/2012 5:00,0.00,1.23,215.50,293.10,-1.5
1/15/2012 6:00,0.00,0.82,212.50,291.20,-2.9
1/15/2012 7:00,0.00,0.56,237.50,294.40,-2.8
1/15/2012 8:00,0.00,0.00,280.70,297.60,-3.2
1/15/2012 9:00,4.26,1.85,278.80,295.60,-4.1
1/15/2012 10:00,66.56,12.36,276.70,296.20,-4.7
1/15/2012 11:00,121.40,21.97,274.30,300.40,-4.1
1/15/2012 12:00,168.30,30.76,270.20,303.20,-4.0
1/15/2012 13:00,196.50,36.63,271.00,304.20,-4.3
1/15/2012 14:00,270.50,53.60,258.40,308.30,-3.6
1/15/2012 15:00,369.00,75.26,242.40,314.20,-2.2
1/15/2012 16:00,275.30,48.75,216.30,305.50,-3.0
1/15/2012 17:00,167.70,26.41,202.60,296.60,-3.9
1/15/2012 18:00,14.91,2.66,193.90,283.80,-6.5
1/15/2012 19:00,0.00,1.28,203.80,279.70,-7.8
1/15/2012 20:00,0.00,1.23,196.40,277.10,-8.0
1/15/2012 21:00,0.00,1.47,186.20,273.80,-8.3
1/15/2012 22:00,0.00,1.44,186.20,272.40,-8.5
1/15/2012 23:00,0.00,1.37,186.70,268.90,-9.2
1/16/2012 0:00,0.00,1.23,220.90,271.60,-9.2
1/16/2012 1:00,0.00,0.58,244.90,276.90,-8.7
1/16/2012 2:00,0.00,0.32,250.30,276.90,-9.0
1/16/2012 3:00,0.00,0.38,234.40,273.80,-9.6
1/16/2012 4:00,0.00,0.77,221.70,269.90,-10.5
1/16/2012 5:00,0.00,0.96,216.00,267.90,-10.8
1/16/2012 6:00,0.00,0.46,242.80,272.00,-10.5
1/16/2012 7:00,0.00,0.46,242.40,271.30,-10.8
1/16/2012 8:00,0.00,0.38,248.80,271.50,-10.8
1/16/2012 9:00,26.65,6.36,211.90,266.60,-11.4
1/16/2012 10:00,88.50,21.18,245.10,274.70,-10.6
1/16/2012 11:00,127.40,35.70,253.60,278.90,-9.9
1/16/2012 12:00,261.60,74.33,249.50,287.00,-8.3
1/16/2012 13:00,360.70,97.90,239.30,296.30,-6.5
1/16/2012 14:00,226.90,54.03,256.10,292.80,-7.4
1/16/2012 15:00,231.20,54.34,248.20,291.70,-7.6
1/16/2012 16:00,197.70,40.57,198.30,286.50,-7.0
1/16/2012 17:00,181.70,36.70,228.20,287.90,-6.7
1/16/2012 18:00,0.00,2.20,199.20,271.00,-9.8
1/16/2012 19:00,0.00,1.32,222.90,271.20,-10.3
1/16/2012 20:00,0.00,1.52,182.90,263.80,-10.6
1/16/2012 21:00,0.00,1.68,191.90,264.00,-10.6
1/16/2012 22:00,0.00,1.60,193.80,265.00,-10.2
1/16/2012 23:00,0.00,1.16,189.20,265.40,-10.0
1/17/2012 0:00,0.00,0.72,223.70,272.30,-8.9
1/17/2012 1:00,0.00,0.57,223.80,273.70,-8.4
1/17/2012 2:00,0.00,0.34,247.40,276.60,-8.2
1/17/2012 3:00,0.00,0.41,246.20,277.10,-8.1
1/17/2012 4:00,0.00,0.29,248.90,277.50,-8.1
1/17/2012 5:00,0.00,0.32,237.90,276.00,-8.3
1/17/2012 6:00,0.00,0.36,253.50,278.60,-7.9
1/17/2012 7:00,0.00,0.18,258.10,279.70,-7.7
1/17/2012 8:00,0.00,0.13,251.10,278.30,-8.0
1/17/2012 9:00,20.78,5.17,232.30,275.30,-8.8
1/17/2012 10:00,63.94,13.74,250.10,281.00,-7.9
1/17/2012 11:00,74.59,13.44,264.80,282.30,-8.1
1/17/2012 12:00,146.00,30.90,263.10,286.50,-7.5
1/17/2012 13:00,155.00,32.05,263.20,290.20,-6.8
1/17/2012 14:00,146.00,29.07,265.80,291.60,-6.4
1/17/2012 15:00,84.70,18.01,262.80,289.20,-6.8
1/17/2012 16:00,76.72,16.16,266.90,292.70,-5.4
1/17/2012 17:00,52.20,9.96,268.50,293.40,-4.7
1/17/2012 18:00,0.00,1.15,269.70,291.60,-4.7
1/17/2012 19:00,0.00,0.09,268.80,290.80,-4.7
1/17/2012 20:00,0.00,0.17,268.70,290.40,-4.8
1/17/2012 21:00,0.00,0.26,266.80,290.50,-4.7
1/17/2012 22:00,0.00,0.21,268.80,290.80,-4.5
1/17/2012 23:00,0.00,0.15,272.10,292.20,-4.1
1/18/2012 0:00,0.00,0.10,273.20,293.10,-3.9
1/18/2012 1:00,0.00,0.07,275.60,294.10,-3.6
1/18/2012 2:00,0.00,0.00,278.50,295.50,-3.3
1/18/2012 3:00,0.00,0.00,279.10,296.30,-3.1
1/18/2012 4:00,0.00,0.00,280.50,296.40,-3.1
1/18/2012 5:00,0.00,0.00,283.20,297.00,-3.0
1/18/2012 6:00,0.00,0.00,288.70,293.50,-4.1
1/18/2012 7:00,0.00,0.00,291.40,291.00,-5.0
1/18/2012 8:00,0.00,0.00,293.00,292.10,-4.8
1/18/2012 9:00,0.00,2.31,295.00,293.20,-4.5
1/18/2012 10:00,0.00,10.73,293.60,294.70,-4.1
1/18/2012 11:00,50.06,24.13,297.40,299.00,-3.0
1/18/2012 12:00,63.89,29.49,300.30,302.00,-2.3
1/18/2012 13:00,63.89,34.02,301.90,304.10,-1.8
1/18/2012 14:00,63.89,27.72,303.70,305.60,-1.5
1/18/2012 15:00,31.41,20.79,305.90,308.10,-0.9
1/18/2012 16:00,4.26,15.42,309.30,310.20,-0.6
1/18/2012 17:00,0.00,8.84,309.10,310.10,-0.8
1/18/2012 18:00,0.00,1.02,309.40,310.40,-0.7
1/18/2012 19:00,0.00,0.00,310.50,311.10,-0.6
1/18/2012 20:00,0.00,0.00,313.20,313.50,-0.1
1/18/2012 21:00,0.00,0.00,312.80,313.40,-0.1
1/18/2012 22:00,0.00,0.00,314.00,314.10,0.0
1/18/2012 23:00,0.00,0.00,315.30,313.80,0.0
1/19/2012 0:00,0.00,0.00,315.30,314.60,0.0
1/19/2012 1:00,0.00,0.60,313.20,315.60,0.1
1/19/2012 2:00,0.00,0.43,314.30,315.60,0.1
1/19/2012 3:00,0.00,0.00,315.50,315.20,0.0
1/19/2012 4:00,0.00,0.00,315.60,314.00,0.0
1/19/2012 5:00,0.00,0.00,315.50,314.50,0.0
1/19/2012 6:00,0.00,0.00,315.50,314.50,0.0
1/19/2012 7:00,0.00,0.00,315.40,314.10,0.0
1/19/2012 8:00,0.00,0.00,314.60,314.60,0.0
1/19/2012 9:00,0.00,3.46,315.20,315.70,0.3
1/19/2012 10:00,0.00,17.66,315.70,315.90,0.4
1/19/2012 11:00,0.00,28.31,315.70,315.60,0.4
1/19/2012 12:00,0.00,31.30,315.70,315.50,0.4
1/19/2012 13:00,0.00,45.06,315.70,316.10,0.6
1/19/2012 14:00,0.00,39.25,315.70,316.30,0.6
1/19/2012 15:00,0.00,31.65,315.50,316.30,0.5
1/19/2012 16:00,0.00,18.37,315.30,315.60,0.3
1/19/2012 17:00,0.00,10.20,315.20,315.80,0.3
1/19/2012 18:00,0.00,2.97,315.30,316.50,0.9
1/19/2012 19:00,0.00,3.62,315.20,317.50,1.6
1/19/2012 20:00,0.00,3.62,315.00,317.90,1.9
1/19/2012 21:00,0.00,1.65,313.30,317.70,2.0
1/19/2012 22:00,0.00,0.29,315.90,317.40,1.8
1/19/2012 23:00,0.00,0.19,316.50,317.60,1.9
1/20/2012 0:00,0.00,1.33,317.10,316.50,0.8
1/20/2012 1:00,0.00,1.47,314.90,316.00,0.3
1/20/2012 2:00,0.00,0.00,315.50,314.70,0.0
1/20/2012 3:00,0.00,0.00,315.10,314.00,0.0
1/20/2012 4:00,0.00,0.00,315.40,314.40,0.0
1/20/2012 5:00,0.00,0.14,314.50,314.40,0.1
1/20/2012 6:00,0.00,0.76,314.00,314.20,0.2
1/20/2012 7:00,0.00,0.74,313.50,313.70,0.2
1/20/2012 8:00,0.00,0.90,313.50,313.90,0.2
1/20/2012 9:00,0.00,7.50,313.50,314.00,0.4
1/20/2012 10:00,26.09,35.50,314.60,314.70,0.6
1/20/2012 11:00,133.60,126.70,300.00,315.60,1.6
1/20/2012 12:00,261.40,217.00,288.80,317.80,3.8
1/20/2012 13:00,228.90,181.60,301.30,319.40,3.5
1/20/2012 14:00,218.80,171.40,302.90,318.70,2.8
1/20/2012 15:00,184.70,143.00,302.90,317.70,1.9
1/20/2012 16:00,79.32,55.07,308.50,316.90,1.3
1/20/2012 17:00,16.51,20.57,315.80,316.70,0.9
1/20/2012 18:00,0.00,3.04,318.40,316.90,1.1
1/20/2012 19:00,0.00,2.05,316.30,316.40,0.6
1/20/2012 20:00,0.00,2.69,317.40,316.30,0.3
1/20/2012 21:00,0.00,1.93,316.20,316.20,0.3
1/20/2012 22:00,0.00,1.67,317.20,316.10,0.4
1/20/2012 23:00,0.00,0.74,319.20,316.60,1.0
1/21/2012 0:00,0.00,0.20,319.30,316.90,1.2
1/21/2012 1:00,0.00,0.40,321.70,317.70,1.9
1/21/2012 2:00,0.00,0.13,322.50,318.00,2.0
1/21/2012 3:00,0.00,0.08,320.70,317.90,2.2
1/21/2012 4:00,0.00,0.09,320.20,318.70,2.9
1/21/2012 5:00,0.00,0.00,317.00,319.70,3.8
1/21/2012 6:00,0.00,0.00,320.80,320.40,4.4
1/21/2012 7:00,0.00,0.00,317.00,320.60,4.7
1/21/2012 8:00,0.00,0.00,323.50,320.50,4.5
1/21/2012 9:00,0.00,3.08,322.80,319.90,4.0
1/21/2012 10:00,34.59,25.74,319.30,319.80,3.9
1/21/2012 11:00,56.94,41.00,323.20,319.20,3.1
1/21/2012 12:00,64.93,43.48,320.30,318.50,2.6
1/21/2012 13:00,53.23,37.73,316.20,316.50,0.6
1/21/2012 14:00,62.30,40.11,314.10,315.70,0.1
1/21/2012 15:00,119.30,91.20,308.00,315.00,0.1
1/21/2012 16:00,142.70,113.80,291.10,313.50,0.3
1/21/2012 17:00,70.82,55.77,241.20,305.90,-0.3
1/21/2012 18:00,21.30,20.71,255.80,304.40,-0.6
1/21/2012 19:00,0.00,0.73,257.80,302.10,-1.3
1/21/2012 20:00,0.00,0.36,268.10,301.50,-2.0
1/21/2012 21:00,0.00,0.34,264.90,300.10,-2.3
1/21/2012 22:00,0.00,0.21,281.90,300.80,-2.5
1/21/2012 23:00,0.00,0.00,288.40,300.10,-3.3